This demonstration page uses our WeatherBlox Daily Observations layout. Learn more.

Left ArrowRight Arrow

38.88101, -77.10428

Hourly Observations for May 12, 2016

Temp ( °F °C ) Dew Point ( °F °C ) Humidity (%) Winds ( mph kmh ) Pressure ( in mb ) Visibility ( mi km ) Precip ( " mm )
12:52 am 00:52 Cloudy with Mist and Fog 59 15 57 13.9 93 93 N N/A 30.15 1021 4 6 N/A
1:52 am 01:52 Cloudy with Mist and Fog 59 15 57 13.9 93 93 NE 6 9 30.14 1021 4 6 N/A
2:47 am 02:47 Cloudy with Mist and Fog 57 14 55 13 94 94 ENE 5 7 30.15 1021 3 4 N/A
2:52 am 02:52 Cloudy with Mist and Fog 58 14.4 56 13.3 93 93 ENE 3 6 30.14 1021 3 4 N/A
3:46 am 03:46 Cloudy with Mist and Fog 59 15 55 13 88 88 N 5 7 30.15 1021 3 5 N/A
3:52 am 03:52 Cloudy with Mist and Fog 59 15 56 13.3 90 90 N N/A 30.14 1021 3 5 N/A
4:04 am 04:04 Cloudy with Mist and Fog 57 14 55 13 94 94 ENE 6 9 30.12 1020 3 4 N/A
4:52 am 04:52 Cloudy with Mist and Fog 58 14.4 56 13.3 93 93 E 7 11 30.13 1020 3 5 N/A
5:37 am 05:37 Cloudy with Mist and Fog 58 14.4 56 13.3 93 93 NE 7 11 30.12 1020 5 8 N/A
5:52 am 05:52 Cloudy with Mist and Fog 58 14.4 55 12.8 90 90 ENE 6 9 30.13 1020 6 10 N/A
6:03 am 06:03 Cloudy with Mist and Fog 58 14.4 56 13.3 93 93 NNE 8 13 30.12 1020 6 10 N/A
6:52 am 06:52 Cloudy with Mist and Fog 58 14.4 56 13.3 93 93 N N/A 30.15 1021 6 10 N/A
7:49 am 07:49 Cloudy with Mist and Fog 59 15 55 13 88 88 N N/A 30.18 1022 6 10 N/A
7:52 am 07:52 Cloudy with Mist and Fog 59 15 56 13.3 90 90 NNE 3 6 30.16 1022 6 10 N/A
8:26 am 08:26 Cloudy with Mist and Fog 59 15 55 13 88 88 E 5 7 30.15 1021 6 10 N/A
8:52 am 08:52 Cloudy with Mist and Fog 59 15 56 13.3 90 90 E 3 6 30.16 1021 6 10 N/A
9:52 am 09:52 Cloudy 60 15.6 56 13.3 86 86 NE 3 6 30.14 1021 7 11 N/A
10:20 am 10:20 Cloudy 61 16 55 13 83 83 N N/A 30.15 1021 7 11 N/A
10:52 am 10:52 Cloudy 60 15.6 57 13.9 90 90 SSE 3 6 30.16 1021 7 11 N/A
11:42 am 11:42 Cloudy 61 16.1 57 13.9 87 87 ESE 3 6 30.15 1021 7 11 N/A
11:52 am 11:52 Cloudy 62 16.7 58 14.4 86 86 N N/A 30.14 1021 7 11 N/A
12:52 pm 12:52 Cloudy 63 17.2 57 13.9 81 81 N N/A 30.13 1020 9 14 N/A
1:52 pm 13:52 Cloudy 64 17.8 58 14.4 81 81 SSW 6 9 30.11 1020 10 16 N/A
2:52 pm 14:52 Cloudy 65 18.3 59 15 81 81 SSE 6 9 30.09 1019 10 16 N/A
3:01 pm 15:01 Cloudy 65 18.3 60 15.6 84 84 S 7 11 30.09 1019 10 16 N/A
3:52 pm 15:52 Cloudy 65 18.3 59 15 81 81 SSW 6 9 30.08 1019 10 16 N/A
4:52 pm 16:52 Cloudy 66 18.9 59 15 78 78 S 5 7 30.06 1018 10 16 N/A
5:52 pm 17:52 Cloudy 65 18.3 60 15.6 84 84 S 7 11 30.06 1018 10 16 N/A
6:52 pm 18:52 Cloudy 64 17.8 59 15 84 84 S 9 15 30.03 1017 10 16 N/A
7:52 pm 19:52 Cloudy with Mist and Fog 63 17.2 59 15 87 87 S 5 7 30.03 1017 6 10 N/A
8:52 pm 20:52 Cloudy 64 17.8 59 15 84 84 S 7 11 30.04 1017 10 16 N/A
9:28 pm 21:28 Cloudy 64 18 59 15 83 83 S 7 11 30.03 1017 10 16 N/A
9:52 pm 21:52 Cloudy 63 17.2 60 15.6 90 90 S 7 11 30.03 1017 10 16 N/A
10:19 pm 22:19 Cloudy 63 17.2 60 15.6 90 90 S 7 11 30.03 1017 10 16 N/A
10:52 pm 22:52 Cloudy 63 17.2 60 15.6 90 90 S 6 9 30.02 1017 10 16 N/A
11:52 pm 23:52 Cloudy 63 17.2 60 15.6 90 90 S 8 13 29.99 1016 10 16 N/A

Powered by AerisWeather